CW1575 Weather Reports


Display with metric or nautical units.
time (UTC)temp
F
wind
direction
speed
MPH
gust
MPH
rain 1hr
in
rain 24hr
in
rain mn
in
humidity
%
barometer
mb
20160524212503 76 337 6.0 12.0 0.00 0.00 0.00 42 1011.1
20160524212003 76 344 5.0 10.0 0.00 0.00 0.00 42 1011.3
20160524211504 76 341 5.0 12.0 0.00 0.00 0.00 43 1011.2
20160524211003 75 342 5.0 10.0 0.00 0.00 0.00 43 1011.2
20160524210503 74 335 5.0 12.0 0.00 0.00 0.00 44 1011.3
20160524210004 73 320 7.0 14.0 0.00 0.00 0.00 43 1011.0
20160524205503 72 293 3.0 9.0 0.00 0.00 0.00 41 1011.1
20160524204503 71 309 6.0 12.0 0.00 0.00 0.00 41 1011.5
20160524204003 72 358 3.0 8.0 0.00 0.00 0.00 42 1011.6
20160524203504 72 352 3.0 12.0 0.00 0.00 0.00 43 1011.7
20160524203004 72 282 6.0 12.0 0.00 0.00 0.00 44 1011.6
20160524202504 72 282 2.0 12.0 0.00 0.00 0.00 44 1011.3
20160524201503 72 183 4.0 10.0 0.00 0.00 0.00 44 1011.1
20160524201004 72 186 5.0 10.0 0.00 0.00 0.00 43 1010.9
20160524200004 73 138 5.0 10.0 0.00 0.00 0.00 42 1010.6
20160524194503 75 125 6.0 10.0 0.00 0.00 0.00 36 1011.1
20160524194004 76 69 3.0 12.0 0.00 0.00 0.00 35 1011.5
20160524193503 76 119 3.0 10.0 0.00 0.00 0.00 37 1011.5
20160524193003 75 141 5.0 9.0 0.00 0.00 0.00 36 1011.7
20160524192504 75 125 2.0 8.0 0.00 0.00 0.00 40 1012.5
20160524192003 74 104 2.0 16.0 0.00 0.00 0.00 38 1012.5
20160524191504 73 60 3.0 9.0 0.00 0.00 0.00 39 1012.6
20160524191003 73 109 3.0 9.0 0.00 0.00 0.00 41 1012.6
20160524190503 73 67 1.0 7.0 0.00 0.00 0.00 41 1012.9
20160524190003 73 51 3.0 9.0 0.00 0.00 0.00 40 1012.6
20160524185503 73 130 5.0 10.0 0.00 0.00 0.00 40 1012.7
20160524184504 73 72 2.0 8.0 0.00 0.00 0.00 42 1013.3
20160524184004 73 107 3.0 12.0 0.00 0.00 0.00 42 1013.2
20160524183503 72 125 2.0 8.0 0.00 0.00 0.00 41 1013.3
20160524183003 73 129 5.0 8.0 0.00 0.00 0.00 42 1013.6
20160524182003 72 141 3.0 9.0 0.00 0.00 0.00 41 1013.4
20160524181503 72 106 4.0 12.0 0.00 0.00 0.00 42 1013.8
20160524181003 71 103 6.0 10.0 0.00 0.00 0.00 42 1014.0
20160524180004 71 118 5.0 12.0 0.00 0.00 0.00 44 1014.0
20160524175503 71 104 3.0 13.0 0.00 0.00 0.00 45 1014.0
20160524175004 70 117 2.0 7.0 0.00 0.00 0.00 44 1014.3
20160524174503 70 172 2.0 7.0 0.00 0.00 0.00 45 1014.1
20160524174003 70 108 3.0 10.0 0.00 0.00 0.00 45 1014.3
20160524173504 69 139 2.0 6.0 0.00 0.00 0.00 47 1014.3
20160524173003 69 163 3.0 8.0 0.00 0.00 0.00 47 1014.4
20160524172504 68 140 2.0 5.0 0.00 0.00 0.00 49 1014.6
20160524172003 68 93 3.0 9.0 0.00 0.00 0.00 49 1014.6
20160524171504 67 157 3.0 10.0 0.00 0.00 0.00 49 1014.6
20160524171003 67 135 5.0 10.0 0.00 0.00 0.00 49 1014.8
20160524165004 65 127 1.0 7.0 0.00 0.00 0.00 53 1015.0
20160524164504 65 157 3.0 6.0 0.00 0.00 0.00 53 1015.0
20160524164004 65 112 3.0 7.0 0.00 0.00 0.00 53 1015.0
20160524163504 65 122 3.0 8.0 0.00 0.00 0.00 51 1015.4
20160524163005 65 122 3.0 7.0 0.00 0.00 0.00 51 1015.4
20160524162504 65 119 5.0 10.0 0.00 0.00 0.00 51 1015.4
20160524161504 65 150 1.0 3.0 0.00 0.00 0.00 52 1015.6
20160524161004 65 140 2.0 5.0 0.00 0.00 0.00 51 1015.8
20160524160504 65 154 1.0 3.0 0.00 0.00 0.00 51 1015.9
20160524155504 65 155 1.0 5.0 0.00 0.00 0.00 51 1016.0
20160524154504 64 121 3.0 6.0 0.00 0.00 0.00 51 1016.2
20160524154004 63 140 2.0 6.0 0.00 0.00 0.00 51 1016.4
20160524153508 63 82 1.0 6.0 0.00 0.00 0.00 52 1016.4
20160524152504 62 107 1.0 3.0 0.00 0.00 0.00 52 1016.1
20160524152004 62 228 2.0 3.0 0.00 0.00 0.00 52 1016.0
20160524151503 61 133 2.0 3.0 0.00 0.00 0.00 52 1016.0
20160524151004 61 70 1.0 3.0 0.00 0.00 0.00 53 1016.0
20160524150504 60 187 0.0 3.0 0.00 0.00 0.00 53 1016.1
20160524150004 59 230 2.0 3.0 0.00 0.00 0.00 56 1016.1
20160524145504 59 355 0.0 3.0 0.00 0.00 0.00 58 1016.0
20160524145004 58 331 1.0 3.0 0.00 0.00 0.00 59 1016.0
20160524144504 57 141 1.0 3.0 0.00 0.00 0.00 59 1016.1
20160524143504 56 176 1.0 2.0 0.00 0.00 0.00 61 1016.0
20160524143004 55 175 1.0 3.0 0.00 0.00 0.00 63 1016.0
20160524142504 55 186 2.0 3.0 0.00 0.00 0.00 65 1016.0
20160524142004 54 149 2.0 3.0 0.00 0.00 0.00 66 1015.9
20160524141505 53 129 2.0 3.0 0.00 0.00 0.00 66 1015.7
20160524141004 52 121 0.0 5.0 0.00 0.00 0.00 69 1015.7
20160524140504 51 124 2.0 3.0 0.00 0.00 0.00 72 1015.7
20160524140004 50 167 0.0 3.0 0.00 0.00 0.00 76 1015.6
20160524135504 49 167 2.0 3.0 0.00 0.00 0.00 77 1015.6
20160524135004 48 171 0.0 0.0 0.00 0.00 0.00 78 1015.6
20160524134504 48 171 0.0 0.0 0.00 0.00 0.00 79 1015.6
20160524133504 47 171 0.0 0.0 0.00 0.00 0.00 81 1015.6
20160524133004 46 147 0.0 2.0 0.00 0.00 0.00 81 1015.6
20160524132004 45 121 1.0 3.0 0.00 0.00 0.00 83 1015.5
20160524131504 45 124 2.0 3.0 0.00 0.00 0.00 84 1015.5
20160524131004 44 128 2.0 3.0 0.00 0.00 0.00 85 1015.4
20160524130504 44 131 1.0 3.0 0.00 0.00 0.00 86 1015.4
20160524130005 43 135 0.0 1.0 0.00 0.00 0.00 86 1015.2
20160524125505 43 135 2.0 3.0 0.00 0.00 0.00 87 1015.2
20160524125005 43 135 0.0 2.0 0.00 0.00 0.00 88 1015.2
20160524124504 42 136 0.0 3.0 0.00 0.00 0.00 89 1015.2
20160524124005 42 260 0.0 0.0 0.00 0.00 0.00 88 1015.1
20160524123505 42 262 0.0 0.0 0.00 0.00 0.00 88 1014.9
20160524123004 42 262 0.0 0.0 0.00 0.00 0.00 88 1014.9
20160524122505 42 262 0.0 0.0 0.00 0.00 0.00 88 1014.9
20160524122005 42 262 0.0 0.0 0.00 0.00 0.00 88 1014.8
20160524121504 42 262 0.0 0.0 0.00 0.00 0.00 87 1014.7
20160524121004 42 262 0.0 0.0 0.00 0.00 0.00 87 1014.8
20160524120504 42 262 0.0 0.0 0.00 0.00 0.00 87 1014.7
20160524120004 42 262 0.0 0.0 0.00 0.00 0.00 87 1014.6
20160524115504 42 262 0.0 0.0 0.00 0.00 0.00 87 1014.6
20160524115004 43 262 0.0 0.0 0.00 0.00 0.00 87 1014.6
20160524114505 43 262 0.0 0.0 0.00 0.00 0.00 86 1014.5
20160524114005 43 262 0.0 0.0 0.00 0.00 0.00 86 1014.5
20160524113504 43 262 0.0 0.0 0.00 0.00 0.00 86 1014.4
20160524113005 43 262 0.0 0.0 0.00 0.00 0.00 86 1014.4
20160524112504 43 262 0.0 0.0 0.00 0.00 0.00 86 1014.3
20160524112005 43 262 0.0 0.0 0.00 0.00 0.00 86 1014.3
20160524111504 43 262 0.0 0.0 0.00 0.00 0.00 85 1014.3
20160524110004 44 262 0.0 0.0 0.00 0.00 0.00 85 1014.2
20160524105505 44 262 0.0 1.0 0.00 0.00 0.00 85 1014.3
20160524104504 44 262 0.0 0.0 0.00 0.00 0.00 84 1014.0
20160524104005 44 262 0.0 0.0 0.00 0.00 0.00 84 1014.1
20160524103504 44 262 0.0 0.0 0.00 0.00 0.00 84 1013.9
20160524103005 44 262 0.0 0.0 0.00 0.00 0.00 83 1013.9
20160524102505 44 262 0.0 1.0 0.00 0.00 0.00 83 1014.0
20160524101506 45 262 0.0 0.0 0.00 0.00 0.00 83 1013.9
20160524101005 45 262 0.0 0.0 0.00 0.00 0.00 83 1014.0
20160524100004 45 262 0.0 1.0 0.00 0.00 0.00 83 1014.2
20160524095504 45 262 0.0 1.0 0.00 0.00 0.00 83 1014.2
20160524095005 45 262 1.0 3.0 0.00 0.00 0.00 83 1014.1
20160524094504 45 309 0.0 0.0 0.00 0.00 0.00 82 1014.2
20160524094004 45 308 0.0 0.0 0.00 0.00 0.00 82 1014.2
20160524093504 45 308 0.0 0.0 0.00 0.00 0.00 82 1014.2
20160524093004 46 308 0.0 0.0 0.00 0.00 0.00 82 1014.3
20160524092504 46 308 0.0 1.0 0.00 0.00 0.00 81 1014.3
20160524092004 46 308 0.0 0.0 0.00 0.00 0.00 81 1014.3
20160524091005 46 308 0.0 0.0 0.00 0.00 0.00 80 1014.4
20160524090504 46 308 0.0 0.0 0.00 0.00 0.00 81 1014.4
20160524090005 46 308 0.0 0.0 0.00 0.00 0.00 80 1014.4
20160524085504 46 308 0.0 1.0 0.00 0.00 0.00 80 1014.3
20160524085004 47 308 0.0 1.0 0.00 0.00 0.00 80 1014.3
20160524084504 47 308 0.0 0.0 0.00 0.00 0.00 80 1014.2
20160524084005 47 308 0.0 1.0 0.00 0.00 0.00 79 1014.1
20160524083504 47 308 0.0 1.0 0.00 0.00 0.00 79 1014.1
20160524083005 47 308 0.0 0.0 0.00 0.00 0.00 79 1014.1
20160524082504 47 308 0.0 0.0 0.00 0.00 0.00 79 1014.2
20160524082005 47 308 0.0 0.0 0.00 0.00 0.00 79 1014.3
20160524081504 47 308 0.0 0.0 0.00 0.00 0.00 78 1014.3
20160524081005 48 308 0.0 1.0 0.00 0.00 0.00 78 1014.5
20160524080505 48 308 0.0 0.0 0.00 0.00 0.00 79 1014.5
20160524080004 48 308 0.0 0.0 0.00 0.00 0.00 79 1014.5
20160524075005 48 308 0.0 0.0 0.00 0.00 0.00 78 1014.6
20160524074504 48 308 0.0 0.0 0.00 0.00 0.00 78 1014.5
20160524074005 48 308 0.0 0.0 0.00 0.00 0.00 78 1014.5
20160524073504 48 308 0.0 0.0 0.00 0.00 0.00 78 1014.6
20160524073005 48 308 1.0 3.0 0.00 0.00 0.00 78 1014.7
20160524072504 48 309 0.0 0.0 0.00 0.00 0.00 77 1014.5
20160524072005 49 309 0.0 0.0 0.00 0.00 0.00 77 1014.5
20160524071504 49 309 0.0 0.0 0.00 0.00 0.00 77 1014.5
20160524071004 49 309 0.0 0.0 0.00 0.00 0.00 76 1014.5
20160524070504 49 309 0.0 0.0 0.00 0.00 0.00 76 1014.6
20160524070005 49 309 0.0 0.0 0.00 0.00 0.00 76 1014.5
20160524064504 49 309 0.0 0.0 0.00 0.00 0.00 75 1014.6
20160524063504 49 309 0.0 0.0 0.00 0.00 0.00 75 1014.6
20160524063005 50 309 0.0 0.0 0.00 0.00 0.00 75 1014.6
20160524062505 50 309 0.0 2.0 0.00 0.00 0.00 75 1014.6
20160524062004 50 309 0.0 1.0 0.00 0.00 0.00 75 1014.7
20160524061504 50 308 0.0 0.0 0.00 0.00 0.00 75 1014.6
20160524061005 50 308 0.0 0.0 0.00 0.00 0.00 75 1014.5
20160524060504 50 313 0.0 1.0 0.00 0.00 0.00 74 1014.5
20160524060005 50 314 0.0 0.0 0.00 0.00 0.00 74 1014.8
20160524055504 51 314 0.0 0.0 0.00 0.00 0.00 74 1014.9
20160524055004 51 314 0.0 0.0 0.00 0.00 0.00 74 1014.9
20160524054504 51 314 0.0 0.0 0.00 0.00 0.00 74 1014.8
20160524054004 51 314 1.0 3.0 0.00 0.00 0.00 73 1014.7
20160524053504 51 8 0.0 0.0 0.00 0.00 0.00 73 1014.9
20160524053005 51 16 0.0 0.0 0.00 0.00 0.00 72 1014.9
20160524052004 52 16 0.0 0.0 0.00 0.00 0.00 72 1015.0
20160524051505 52 16 0.0 0.0 0.00 0.00 0.00 71 1014.9
20160524051004 52 16 0.0 0.0 0.00 0.00 0.00 70 1014.9
20160524050505 52 16 0.0 0.0 0.00 0.00 0.00 70 1015.0
20160524050004 52 16 0.0 0.0 0.00 0.00 0.00 70 1015.0
20160524045504 53 16 0.0 0.0 0.00 0.00 0.00 69 1015.1
20160524045004 53 16 0.0 0.0 0.00 0.00 0.00 69 1015.1
20160524044504 53 16 0.0 0.0 0.00 0.00 0.00 68 1015.0
20160524044006 53 16 0.0 0.0 0.00 0.00 0.00 68 1015.0
20160524043504 54 16 0.0 1.0 0.00 0.00 0.00 68 1015.1
20160524042504 54 16 0.0 0.0 0.00 0.00 0.00 67 1015.0
20160524042005 54 16 0.0 0.0 0.00 0.00 0.00 67 1014.7
20160524041504 54 16 0.0 0.0 0.00 0.00 0.00 66 1014.7
20160524041005 55 16 0.0 0.0 0.00 0.00 0.00 65 1014.7
20160524040505 55 16 0.0 0.0 0.00 0.00 0.00 65 1014.7
20160524040005 55 16 0.0 0.0 0.00 0.00 0.00 64 1014.7
20160524035505 55 16 0.0 0.0 0.00 0.00 0.00 64 1014.6
20160524035004 56 16 0.0 0.0 0.00 0.00 0.00 62 1014.7
20160524034504 56 16 0.0 0.0 0.00 0.00 0.00 62 1014.5
20160524034005 56 16 0.0 0.0 0.00 0.00 0.00 62 1014.4
20160524033504 56 16 0.0 0.0 0.00 0.00 0.00 61 1014.2
20160524033004 57 16 0.0 1.0 0.00 0.00 0.00 61 1014.1
20160524032504 57 16 0.0 1.0 0.00 0.00 0.00 60 1014.0
20160524032005 57 16 0.0 0.0 0.00 0.00 0.00 60 1013.9
20160524031505 57 16 0.0 0.0 0.00 0.00 0.00 60 1013.6
20160524031004 57 16 0.0 0.0 0.00 0.00 0.00 60 1013.5
20160524030504 58 16 0.0 2.0 0.00 0.00 0.00 60 1013.5
20160524030005 58 16 1.0 3.0 0.00 0.00 0.00 60 1013.4
20160524025504 58 16 2.0 5.0 0.00 0.00 0.00 60 1013.3
20160524025005 58 19 3.0 5.0 0.00 0.00 0.00 59 1013.3
20160524024504 59 34 3.0 7.0 0.00 0.00 0.00 59 1013.2
20160524024004 59 15 1.0 3.0 0.00 0.00 0.00 58 1013.2
20160524023504 59 12 2.0 8.0 0.00 0.00 0.00 58 1013.1
20160524023005 60 26 1.0 6.0 0.00 0.00 0.00 57 1013.0
20160524021505 60 19 5.0 8.0 0.00 0.00 0.00 56 1012.5
20160524020504 61 10 3.0 9.0 0.00 0.00 0.00 55 1012.4
20160524020005 61 13 2.0 8.0 0.00 0.00 0.00 54 1012.8
20160524015504 61 1 3.0 5.0 0.00 0.00 0.00 53 1012.9
20160524015004 61 21 3.0 8.0 0.00 0.00 0.00 52 1012.6
20160524014504 61 5 1.0 3.0 0.00 0.00 0.00 51 1012.5
20160524014005 61 332 2.0 5.0 0.00 0.00 0.00 51 1012.5
20160524013504 62 5 2.0 7.0 0.00 0.00 0.00 51 1012.4
20160524013005 62 16 3.0 7.0 0.00 0.00 0.00 51 1012.3
20160524012504 62 334 1.0 5.0 0.00 0.00 0.00 51 1012.1
20160524012005 62 353 2.0 3.0 0.00 0.00 0.00 50 1012.1
20160524011005 63 17 5.0 8.0 0.00 0.00 0.00 48 1011.7
20160524010504 63 330 2.0 8.0 0.00 0.00 0.00 48 1011.8
20160524010004 63 2 3.0 8.0 0.00 0.00 0.00 48 1012.0
20160524005504 64 337 2.0 6.0 0.00 0.00 0.00 48 1011.9
20160524005005 64 21 2.0 8.0 0.00 0.00 0.00 48 1011.8
20160524004505 64 341 2.0 5.0 0.00 0.00 0.00 47 1011.9
20160524004004 64 11 2.0 6.0 0.00 0.00 0.00 47 1011.8
20160524003504 64 5 2.0 5.0 0.00 0.00 0.00 46 1011.8
20160524003005 65 8 1.0 3.0 0.00 0.00 0.00 46 1012.0
20160524002504 64 12 3.0 7.0 0.00 0.00 0.00 45 1011.9
20160524002005 64 6 1.0 5.0 0.00 0.00 0.00 43 1011.9
20160524001504 64 23 1.0 6.0 0.00 0.00 0.00 44 1011.6
20160524001004 64 20 4.0 8.0 0.00 0.00 0.00 44 1011.7
20160524000004 65 23 1.0 3.0 0.00 0.00 0.00 42 1011.8
20160523235504 65 29 2.0 3.0 0.00 0.00 0.00 43 1011.9
20160523235004 65 33 1.0 3.0 0.00 0.00 0.00 41 1011.8
20160523234504 65 22 1.0 3.0 0.00 0.00 0.00 42 1011.7
20160523234005 65 15 3.0 8.0 0.00 0.00 0.00 41 1011.7
20160523233504 66 19 1.0 8.0 0.00 0.00 0.00 41 1011.5
20160523233005 66 101 0.0 2.0 0.00 0.00 0.00 40 1011.7
20160523232504 67 101 2.0 6.0 0.00 0.00 0.00 40 1011.6
20160523231504 68 111 2.0 7.0 0.00 0.00 0.00 40 1011.5
20160523231005 68 89 1.0 7.0 0.00 0.00 0.00 40 1011.4
20160523230504 69 75 2.0 8.0 0.00 0.00 0.00 41 1012.0
20160523230004 69 66 2.0 12.0 0.00 0.00 0.00 41 1012.0
20160523225004 68 29 4.0 9.0 0.00 0.00 0.00 42 1012.1
20160523224005 67 107 3.0 12.0 0.00 0.00 0.00 43 1011.9
20160523223504 67 30 3.0 12.0 0.00 0.00 0.00 43 1011.9
20160523223005 67 36 4.0 10.0 0.00 0.00 0.00 43 1011.8
20160523222004 66 14 2.0 8.0 0.00 0.00 0.00 43 1011.7
20160523221504 66 23 2.0 8.0 0.00 0.00 0.00 43 1011.8
20160523221005 67 119 3.0 12.0 0.00 0.00 0.00 41 1011.9
20160523220504 67 74 1.0 3.0 0.00 0.00 0.00 42 1012.0
20160523215504 68 24 1.0 10.0 0.00 0.00 0.00 41 1012.3
20160523215005 68 42 2.0 8.0 0.00 0.00 0.00 42 1012.1
20160523214504 68 12 3.0 9.0 0.00 0.00 0.00 42 1012.1
20160523214005 68 89 3.0 10.0 0.00 0.00 0.00 40 1012.1
20160523213504 69 53 2.0 6.0 0.00 0.00 0.00 41 1012.0
20160523213005 69 40 3.0 12.0 0.00 0.00 0.00 41 1012.2